DW2843 Weather Reports


time (UTC)temp
C
wind
direction
speed
KPH
gust
KPH
rain 1hr
cm
rain 24hr
cm
rain mn
cm
humidity
%
barometer
mb
20260507123005 16 136 4.8 14.5 0.00 0.00 0.00 58 1016.5
20260507122005 16 146 4.8 14.5 0.00 0.00 0.00 61 1016.6
20260507121004 16 124 4.8 11.3 0.00 0.00 0.00 64 1016.7
20260507120004 15 147 4.8 11.3 0.00 0.00 0.00 64 1016.7
20260507115003 14 135 4.8 14.5 0.00 0.00 0.00 68 1016.8
20260507114003 13 115 4.8 14.5 0.00 0.00 0.00 68 1016.8
20260507113004 13 70 1.6 14.5 0.00 0.00 0.00 67 1016.9
20260507112004 13 108 1.6 9.7 0.00 0.00 0.00 68 1016.9
20260507111004 14 132 1.6 14.5 0.00 0.00 0.00 66 1017.0
20260507110004 14 100 1.6 6.4 0.00 0.00 0.00 70 1017.1
20260507105004 13 123 1.6 11.3 0.00 0.00 0.00 69 1017.1
20260507104006 13 120 1.6 6.4 0.00 0.00 0.00 70 1017.0
20260507103006 13 128 1.6 9.7 0.00 0.00 0.00 68 1017.1
20260507102007 14 131 1.6 9.7 0.00 0.03 0.00 67 1017.1
20260507101004 14 127 1.6 11.3 0.00 0.03 0.00 66 1017.1
20260507100006 14 127 1.6 9.7 0.00 0.03 0.00 69 1017.0
20260507095005 13 139 4.8 19.3 0.00 0.03 0.00 70 1016.9
20260507094005 13 128 1.6 14.5 0.00 0.03 0.00 72 1017.0
20260507093004 12 66 1.6 6.4 0.00 0.03 0.00 72 1017.0
20260507092005 12 46 1.6 9.7 0.00 0.03 0.00 72 1016.9
20260507091005 12 0 0.0 9.7 0.00 0.05 0.00 73 1016.9
20260507090011 12 84 1.6 6.4 0.00 0.05 0.00 73 1016.9
20260507085005 12 122 1.6 6.4 0.00 0.05 0.00 77 1017.0
20260507084005 11 80 1.6 6.4 0.00 0.05 0.00 78 1016.9
20260507083005 11 76 1.6 6.4 0.00 0.05 0.00 77 1016.9
20260507080005 11 0 0.0 1.6 0.00 0.05 0.00 76 1016.7
20260507075004 11 117 1.6 6.4 0.00 0.05 0.00 77 1016.7
20260507074004 11 69 1.6 6.4 0.00 0.05 0.00 77 1016.6
20260507073004 11 135 1.6 9.7 0.00 0.05 0.00 79 1016.6
20260507072005 10 138 1.6 9.7 0.00 0.05 0.00 82 1016.5
20260507065004 8 0 0.0 6.4 0.00 0.05 0.00 89 1016.5
20260507064005 8 0 0.0 6.4 0.00 0.05 0.00 90 1016.5
20260507063005 7 0 0.0 6.4 0.00 0.05 0.00 91 1016.4
20260507062005 7 0 0.0 6.4 0.00 0.05 0.00 91 1016.4
20260507061005 7 0 0.0 4.8 0.00 0.05 0.00 92 1016.4
20260507060006 7 0 0.0 1.6 0.00 0.05 0.00 92 1016.2
20260507055005 7 0 0.0 1.6 0.00 0.05 0.00 92 1016.3
20260507054005 7 0 0.0 4.8 0.00 0.05 0.00 92 1016.1
20260507053006 7 0 0.0 1.6 0.00 0.05 0.00 92 1016.0
20260507052004 6 0 0.0 4.8 0.00 0.05 0.00 92 1016.0
20260507051004 6 0 0.0 4.8 0.00 0.05 0.00 92 1016.0
20260507050005 6 0 0.0 0.0 0.00 0.05 0.00 92 1015.9
20260507045004 6 0 0.0 0.0 0.00 0.05 0.00 92 1015.8
20260507043004 6 0 0.0 0.0 0.00 0.05 0.00 92 1015.7
20260507042005 6 0 0.0 0.0 0.00 0.05 0.00 92 1015.7
20260507041004 6 0 0.0 0.0 0.00 0.05 0.00 92 1015.7
20260507040005 6 0 0.0 0.0 0.00 0.05 0.00 92 1015.6
20260507033004 7 0 0.0 0.0 0.00 0.05 0.00 92 1015.6
20260507032005 7 0 0.0 0.0 0.00 0.05 0.00 92 1015.6
20260507031004 7 0 0.0 1.6 0.00 0.05 0.00 92 1015.6
20260507030006 7 0 0.0 0.0 0.00 0.05 0.00 92 1015.6
20260507025005 7 0 0.0 0.0 0.00 0.05 0.00 92 1015.5
20260507024004 7 0 0.0 1.6 0.00 0.05 0.00 92 1015.5
20260507023006 7 0 0.0 1.6 0.00 0.05 0.00 92 1015.6
20260507022005 7 0 0.0 0.0 0.00 0.05 0.00 92 1015.5
20260507021005 7 0 0.0 0.0 0.00 0.05 0.00 92 1015.5
20260507020007 7 0 0.0 0.0 0.00 0.05 0.00 91 1015.6
20260507015005 7 0 0.0 0.0 0.00 0.05 0.00 91 1015.4
20260507014005 7 0 0.0 0.0 0.00 0.05 0.00 91 1015.4
20260507012006 7 0 0.0 0.0 0.00 0.05 0.00 91 1015.4
20260507010005 7 0 0.0 1.6 0.00 0.05 0.00 91 1015.4
20260507005005 7 0 0.0 1.6 0.00 0.05 0.00 91 1015.4
20260507004005 7 0 0.0 0.0 0.00 0.05 0.00 91 1015.4
20260507003005 7 0 0.0 0.0 0.00 0.05 0.00 91 1015.3
20260507002004 7 0 0.0 0.0 0.00 0.05 0.00 91 1015.3
20260507001006 7 0 0.0 4.8 0.00 0.05 0.00 91 1015.4
20260507000005 7 0 0.0 1.6 0.00 0.05 0.00 90 1015.5
20260506235004 7 0 0.0 0.0 0.00 0.05 0.05 90 1015.5
20260506234006 7 0 0.0 1.6 0.00 0.05 0.05 90 1015.5
20260506231005 7 0 0.0 1.6 0.00 0.05 0.05 90 1015.3
20260506230006 7 0 0.0 0.0 0.00 0.05 0.05 90 1015.4
20260506225004 7 0 0.0 1.6 0.00 0.05 0.05 89 1015.4
20260506224005 7 0 0.0 0.0 0.00 0.05 0.05 89 1015.3
20260506223004 7 0 0.0 1.6 0.00 0.05 0.05 89 1015.2
20260506222004 8 0 0.0 4.8 0.00 0.05 0.05 89 1015.2
20260506221005 8 0 0.0 4.8 0.00 0.05 0.05 89 1015.0
20260506215006 8 0 0.0 4.8 0.00 0.05 0.05 89 1015.0
20260506213006 8 0 0.0 4.8 0.00 0.05 0.05 88 1014.8
20260506212005 8 0 0.0 4.8 0.00 0.05 0.05 88 1014.8
20260506211004 8 0 0.0 6.4 0.00 0.05 0.05 88 1014.8
20260506205004 8 64 1.6 11.3 0.00 0.05 0.05 89 1014.8
20260506204004 8 0 0.0 6.4 0.00 0.05 0.05 88 1014.7
20260506203006 8 0 0.0 6.4 0.00 0.05 0.05 89 1014.7
20260506202004 8 0 0.0 4.8 0.00 0.05 0.05 88 1014.7
20260506201004 8 0 0.0 6.4 0.00 0.05 0.05 88 1014.6
20260506200005 8 74 1.6 9.7 0.00 0.05 0.05 89 1014.6
20260506195004 8 74 1.6 9.7 0.00 0.05 0.05 89 1014.4
20260506194005 9 57 4.8 9.7 0.00 0.05 0.05 90 1014.3
20260506193006 9 56 1.6 6.4 0.00 0.05 0.05 90 1014.2
20260506191005 10 57 1.6 6.4 0.00 0.05 0.05 89 1014.1
20260506190006 10 26 1.6 9.7 0.00 0.05 0.05 88 1014.0
20260506185005 10 56 1.6 9.7 0.00 0.05 0.05 88 1013.9
20260506184004 10 65 1.6 6.4 0.00 0.05 0.05 87 1013.9
20260506182004 10 55 1.6 6.4 0.00 0.05 0.05 87 1013.8
20260506181004 10 29 1.6 6.4 0.00 0.05 0.05 86 1013.6
20260506180006 10 45 1.6 9.7 0.00 0.05 0.05 86 1013.5
20260506175004 10 56 1.6 6.4 0.00 0.05 0.05 86 1013.5
20260506174005 10 66 1.6 6.4 0.00 0.05 0.05 85 1013.4
20260506173005 10 53 1.6 6.4 0.00 0.05 0.05 85 1013.4
20260506172005 10 55 4.8 9.7 0.00 0.05 0.05 85 1013.3
20260506165006 10 49 1.6 9.7 0.00 0.05 0.05 84 1013.1
20260506164005 11 57 6.4 14.5 0.00 0.05 0.05 82 1013.1
20260506163004 11 37 6.4 9.7 0.00 0.05 0.05 80 1013.2
20260506160005 12 18 4.8 11.3 0.00 0.05 0.05 77 1013.2
20260506155005 12 342 1.6 14.5 0.00 0.05 0.05 80 1013.1
20260506154005 12 31 4.8 14.5 0.00 0.05 0.05 79 1013.1
20260506152004 12 351 1.6 11.3 0.00 0.05 0.05 80 1013.0
20260506151005 11 346 1.6 6.4 0.00 0.05 0.05 81 1013.0
20260506150005 11 2 1.6 9.7 0.00 0.05 0.05 83 1013.0
20260506144005 10 23 4.8 14.5 0.00 0.05 0.05 83 1013.2
20260506141004 10 26 6.4 20.9 0.00 0.05 0.05 83 1013.2
20260506140005 10 26 6.4 24.1 0.00 0.05 0.05 83 1013.2
20260506135005 10 34 6.4 19.3 0.00 0.05 0.05 83 1013.2
20260506133006 10 26 6.4 19.3 0.00 0.05 0.05 84 1013.2
20260506131004 10 26 6.4 19.3 0.00 0.05 0.05 84 1013.1
20260506130006 11 16 6.4 24.1 0.00 0.05 0.05 84 1013.1
20260506125004 11 31 6.4 16.1 0.00 0.05 0.05 83 1012.9
20260506124005 10 26 6.4 20.9 0.00 0.05 0.05 81 1013.0